Location: Zagreb
(45.8000°N, 16.0000°E)
Time: 04:06:01
(UTC+02:00)

Tiros 1 - All Passes

Search period start: 08 August 2022 00:00
Search period end: 18 August 2022 00:00
Orbit: 629 x 663 km, 48.4° (Epoch: 07 August)

Date Brightness Start Highest point End Pass type
(mag) Time Alt. Az. Time Alt. Az. Time Alt. Az.
08 Aug - 01:10:01 10° WNW 01:14:45 68° N 01:19:31 10° E visible
08 Aug - 02:52:16 10° WNW 02:56:57 57° SSW 03:01:39 10° SE visible
08 Aug - 04:35:41 10° W 04:38:26 15° SW 04:41:12 10° S visible
08 Aug - 20:30:14 10° SSW 20:33:59 25° SE 20:37:48 10° E daylight
08 Aug - 22:11:02 10° WSW 22:15:43 81° SSE 22:20:28 10° ENE visible
08 Aug - 23:53:24 10° W 23:58:05 63° N 00:02:50 10° E visible
09 Aug - 01:35:45 10° WNW 01:40:32 88° NNE 01:45:20 10° ESE visible
09 Aug - 03:18:12 10° W 03:22:26 32° SW 03:26:41 10° SSE night (unlit)
09 Aug - 19:17:05 10° SE 19:18:06 11° SE 19:19:08 10° ESE daylight
09 Aug - 20:54:56 10° SW 20:59:23 45° SSE 21:03:54 10° ENE visible
09 Aug - 22:36:46 10° W 22:41:28 74° NNW 22:46:13 10° ENE visible
10 Aug - 00:19:14 10° WNW 00:23:57 67° N 00:28:43 10° E visible
10 Aug - 02:01:30 10° WNW 02:06:12 61° SSW 02:10:55 10° SE visible
10 Aug - 03:44:42 10° W 03:47:44 17° SW 03:50:45 10° S night (unlit)
10 Aug - 19:39:40 10° S 19:43:16 23° SE 19:46:55 10° E daylight
10 Aug - 21:20:18 10° WSW 21:24:57 77° SSE 21:29:41 10° ENE visible
10 Aug - 23:02:37 10° W 23:07:18 63° N 23:12:02 10° E visible
11 Aug - 00:44:59 10° WNW 00:49:45 84° NNE 00:54:33 10° ESE visible
11 Aug - 02:27:23 10° W 02:31:42 34° SW 02:36:01 10° SSE night (unlit)
11 Aug - 20:04:16 10° SW 20:08:38 42° SSE 20:13:05 10° ENE daylight
11 Aug - 21:46:00 10° W 21:50:41 76° NNW 21:55:25 10° ENE visible
11 Aug - 23:28:27 10° WNW 23:33:09 66° N 23:37:54 10° E visible
12 Aug - 01:10:44 10° WNW 01:15:26 65° SSW 01:20:10 10° SE visible
12 Aug - 02:53:47 10° W 02:57:00 18° SW 03:00:14 10° S night (unlit)
12 Aug - 18:49:07 10° S 18:52:34 21° SE 18:56:02 10° E daylight
12 Aug - 20:29:33 10° WSW 20:34:11 73° SSE 20:38:54 10° ENE daylight
12 Aug - 22:11:50 10° W 22:16:30 64° N 22:21:13 10° ENE visible
12 Aug - 23:54:14 10° WNW 23:58:58 81° NNE 00:03:45 10° ESE visible
13 Aug - 01:36:35 10° W 01:40:57 37° SW 01:45:20 10° SSE visible
13 Aug - 19:13:36 10° SW 19:17:54 39° SSE 19:22:16 10° ENE daylight
13 Aug - 20:55:14 10° WSW 20:59:54 78° NNW 21:04:38 10° ENE visible
13 Aug - 22:37:41 10° WNW 22:42:22 64° N 22:47:05 10° E visible
14 Aug - 00:19:57 10° WNW 00:24:40 69° SSW 00:29:24 10° ESE visible
14 Aug - 02:02:53 10° W 02:06:17 20° SW 02:09:42 10° S night (unlit)
14 Aug - 17:58:36 10° S 18:01:51 19° SE 18:05:08 10° E daylight
14 Aug - 19:38:49 10° WSW 19:43:26 69° SSE 19:48:06 10° ENE daylight
14 Aug - 21:21:04 10° W 21:25:43 64° N 21:30:25 10° ENE visible
14 Aug - 23:03:27 10° WNW 23:08:11 79° NNE 23:12:57 10° ESE visible
15 Aug - 00:45:47 10° WNW 00:50:12 40° SW 00:54:38 10° SE visible
15 Aug - 18:22:56 10° SSW 18:27:10 36° SE 18:31:27 10° E daylight
15 Aug - 20:04:28 10° WSW 20:09:07 81° NNW 20:13:51 10° ENE daylight
15 Aug - 21:46:55 10° WNW 21:51:35 64° N 21:56:16 10° E visible
15 Aug - 23:29:11 10° WNW 23:33:53 73° SSW 23:38:38 10° ESE visible
16 Aug - 01:12:00 10° W 01:15:33 21° SW 01:19:08 10° S visible
16 Aug - 17:08:06 10° S 17:11:09 17° SE 17:14:12 10° E daylight
16 Aug - 18:48:06 10° SW 18:52:41 64° SSE 18:57:19 10° ENE daylight
16 Aug - 20:30:17 10° W 20:34:55 65° N 20:39:37 10° ENE visible
16 Aug - 22:12:42 10° WNW 22:17:23 76° NNE 22:22:08 10° E visible
16 Aug - 23:55:00 10° WNW 23:59:27 42° SSW 00:03:56 10° SE visible
17 Aug - 17:32:17 10° SSW 17:36:26 34° SE 17:40:37 10° E daylight
17 Aug - 19:13:42 10° WSW 19:18:20 84° NNW 19:23:03 10° ENE daylight
17 Aug - 20:56:08 10° W 21:00:47 63° N 21:05:27 10° E visible
17 Aug - 22:38:25 10° WNW 22:43:07 77° SSW 22:47:51 10° ESE visible
